RYR271 EPPO-EINN

Flight info

Callsign RYR271
Flight time 2h 39m
Altitude 34000
Route ELSUP Z181 XIGRI DCT PENEK DCT HLZ DCT ENZEN DCT OTBED L60 PENIL M144 BAGSO DCT DUB DCT DIGAN DIGAN2E
Aircraft B738/M-SDE2E3FGHIRWXY/LB1

Departure

Time 2026-05-09 10:28
Airport Poznań-Ławica Airport (EPPO)

Arrival

Time 2026-05-09 13:07
Airport Shannon Airport (EINN)
Time Latitude Longitude Altitude Speed Heading
2026-05-09 10:07 52.41585 16.82660 298 ft 0 kts 183°
2026-05-09 10:16 52.41588 16.82660 298 ft 2 kts 183°
2026-05-09 10:17 52.41607 16.82662 301 ft 3 kts 184°
2026-05-09 10:17 52.41627 16.82665 301 ft 3 kts 183°
2026-05-09 10:17 52.41647 16.82665 300 ft 3 kts 174°
2026-05-09 10:17 52.41665 16.82659 300 ft 3 kts 145°
2026-05-09 10:18 52.41673 16.82647 301 ft 1 kts 95°
2026-05-09 10:18 52.41673 16.82644 301 ft 0 kts 94°
2026-05-09 10:20 52.41673 16.82647 301 ft 2 kts 93°
2026-05-09 10:20 52.41671 16.82698 299 ft 5 kts 92°
2026-05-09 10:21 52.41670 16.82758 300 ft 6 kts 93°
2026-05-09 10:21 52.41682 16.82821 300 ft 6 kts 43°
2026-05-09 10:21 52.41722 16.82848 300 ft 6 kts 18°
2026-05-09 10:21 52.41766 16.82872 301 ft 7 kts 19°
2026-05-09 10:22 52.41816 16.82900 302 ft 8 kts 18°
2026-05-09 10:22 52.41871 16.82900 303 ft 8 kts 324°
2026-05-09 10:22 52.41896 16.82814 304 ft 8 kts 288°
2026-05-09 10:22 52.41914 16.82724 306 ft 8 kts 288°
2026-05-09 10:23 52.41932 16.82629 303 ft 9 kts 287°
2026-05-09 10:23 52.41953 16.82518 304 ft 11 kts 288°
2026-05-09 10:23 52.41983 16.82364 303 ft 17 kts 287°
2026-05-09 10:23 52.42019 16.82179 303 ft 17 kts 288°
2026-05-09 10:24 52.42055 16.81998 303 ft 16 kts 288°
2026-05-09 10:24 52.42091 16.81825 304 ft 16 kts 289°
2026-05-09 10:24 52.42120 16.81656 302 ft 15 kts 287°
2026-05-09 10:24 52.42151 16.81495 306 ft 14 kts 287°
2026-05-09 10:25 52.42180 16.81339 309 ft 16 kts 287°
2026-05-09 10:25 52.42232 16.81065 312 ft 24 kts 287°
2026-05-09 10:25 52.42277 16.80831 313 ft 21 kts 287°
2026-05-09 10:25 52.42319 16.80619 312 ft 14 kts 291°
2026-05-09 10:26 52.42365 16.80556 314 ft 8 kts 350°
2026-05-09 10:26 52.42395 16.80565 314 ft 0 kts 15°
2026-05-09 10:27 52.42396 16.80566 314 ft 3 kts 15°
2026-05-09 10:27 52.42455 16.80597 315 ft 12 kts 23°
2026-05-09 10:27 52.42483 16.80679 316 ft 8 kts 102°
2026-05-09 10:27 52.42475 16.80718 314 ft 5 kts 108°
2026-05-09 10:28 52.42368 16.81273 311 ft 96 kts 107°
2026-05-09 10:28 52.42094 16.82732 336 ft 168 kts 106°
2026-05-09 10:28 52.41708 16.84693 1072 ft 193 kts 106°
2026-05-09 10:28 52.41321 16.86646 2358 ft 182 kts 105°
2026-05-09 10:29 52.40895 16.88834 3122 ft 209 kts 105°
2026-05-09 10:29 52.40438 16.91208 3806 ft 222 kts 105°
2026-05-09 10:29 52.39969 16.93632 4705 ft 229 kts 106°
2026-05-09 10:29 52.39492 16.96106 5785 ft 228 kts 106°
2026-05-09 10:30 52.39007 16.98632 6672 ft 236 kts 106°
2026-05-09 10:30 52.38679 17.00341 7236 ft 240 kts 105°
2026-05-09 10:30 52.38172 17.02976 8083 ft 245 kts 106°
2026-05-09 10:30 52.37652 17.05677 8886 ft 252 kts 106°
2026-05-09 10:31 52.36947 17.09332 9992 ft 259 kts 107°
2026-05-09 10:31 52.36071 17.11906 10715 ft 263 kts 136°
2026-05-09 10:31 52.35077 17.13089 11217 ft 263 kts 157°
2026-05-09 10:31 52.32720 17.13609 12206 ft 261 kts 192°
2026-05-09 10:32 52.31528 17.13128 12717 ft 262 kts 199°
2026-05-09 10:32 52.29836 17.12240 13436 ft 265 kts 201°
2026-05-09 10:32 52.28177 17.10798 14125 ft 264 kts 226°
2026-05-09 10:32 52.27161 17.08366 14746 ft 263 kts 252°
2026-05-09 10:33 52.26924 17.05416 14985 ft 280 kts 278°
2026-05-09 10:33 52.27407 17.02304 15173 ft 300 kts 288°
2026-05-09 10:33 52.28113 16.98826 15336 ft 323 kts 288°
2026-05-09 10:33 52.28842 16.95236 15494 ft 343 kts 288°
2026-05-09 10:34 52.29599 16.91461 15842 ft 356 kts 288°
2026-05-09 10:34 52.31106 16.83743 17157 ft 361 kts 287°
2026-05-09 10:34 52.31865 16.79822 17806 ft 364 kts 287°
2026-05-09 10:35 52.32629 16.75865 18401 ft 367 kts 287°
2026-05-09 10:35 52.33401 16.71866 18932 ft 370 kts 287°
2026-05-09 10:35 52.34174 16.67847 19464 ft 372 kts 287°
2026-05-09 10:35 52.34951 16.63799 19988 ft 374 kts 287°
2026-05-09 10:36 52.35731 16.59727 20472 ft 377 kts 287°
2026-05-09 10:36 52.36514 16.55633 20953 ft 379 kts 287°
2026-05-09 10:36 52.37302 16.51500 21421 ft 381 kts 287°
2026-05-09 10:36 52.38093 16.47346 21884 ft 384 kts 287°
2026-05-09 10:37 52.38889 16.43161 22337 ft 386 kts 287°
2026-05-09 10:37 52.39687 16.38952 22765 ft 388 kts 287°
2026-05-09 10:37 52.40479 16.34713 23193 ft 390 kts 285°
2026-05-09 10:37 52.41176 16.30410 23602 ft 393 kts 284°
2026-05-09 10:38 52.41817 16.26052 23963 ft 395 kts 283°
2026-05-09 10:38 52.42443 16.21660 24289 ft 397 kts 283°
2026-05-09 10:38 52.43071 16.17250 24623 ft 398 kts 283°
2026-05-09 10:38 52.43706 16.12828 24935 ft 400 kts 283°
2026-05-09 10:39 52.44350 16.08372 25237 ft 402 kts 283°
2026-05-09 10:39 52.45001 16.03899 25538 ft 404 kts 283°
2026-05-09 10:39 52.45654 15.99412 25830 ft 406 kts 283°
2026-05-09 10:39 52.46311 15.94901 26119 ft 408 kts 283°
2026-05-09 10:40 52.46969 15.90372 26403 ft 409 kts 283°
2026-05-09 10:40 52.47619 15.85885 26662 ft 411 kts 283°
2026-05-09 10:40 52.48279 15.81314 26930 ft 413 kts 283°
2026-05-09 10:40 52.48939 15.76730 27190 ft 414 kts 283°
2026-05-09 10:41 52.49601 15.72118 27450 ft 416 kts 283°
2026-05-09 10:41 52.50262 15.67494 27701 ft 417 kts 283°
2026-05-09 10:41 52.50925 15.62849 27938 ft 419 kts 283°
2026-05-09 10:41 52.51588 15.58187 28154 ft 420 kts 283°
2026-05-09 10:42 52.52253 15.53498 28391 ft 422 kts 283°
2026-05-09 10:42 52.52918 15.48797 28611 ft 423 kts 283°
2026-05-09 10:42 52.53582 15.44084 28821 ft 425 kts 283°
2026-05-09 10:42 52.54037 15.39281 29023 ft 427 kts 270°
2026-05-09 10:43 52.53887 15.34423 29362 ft 425 kts 269°
2026-05-09 10:43 52.53870 15.29594 29725 ft 422 kts 270°
2026-05-09 10:43 52.53733 15.24770 29982 ft 423 kts 266°
2026-05-09 10:43 52.53447 15.19950 30211 ft 424 kts 265°
2026-05-09 10:44 52.53153 15.15139 30464 ft 423 kts 266°
2026-05-09 10:44 52.52911 15.10333 30706 ft 422 kts 267°
2026-05-09 10:44 52.52716 15.05517 30912 ft 422 kts 268°
2026-05-09 10:44 52.52540 15.00712 31090 ft 422 kts 268°
2026-05-09 10:45 52.52369 14.95893 31315 ft 422 kts 268°
2026-05-09 10:46 52.51676 14.76691 32139 ft 421 kts 268°
2026-05-09 10:46 52.51499 14.71904 32367 ft 420 kts 267°
2026-05-09 10:46 52.51321 14.67180 32560 ft 420 kts 267°
2026-05-09 10:46 52.51139 14.62400 32741 ft 420 kts 267°
2026-05-09 10:47 52.50937 14.57617 32951 ft 420 kts 266°
2026-05-09 10:47 52.50701 14.52844 33161 ft 419 kts 266°
2026-05-09 10:47 52.50451 14.48085 33338 ft 419 kts 266°
2026-05-09 10:47 52.50197 14.43328 33496 ft 419 kts 266°
2026-05-09 10:48 52.49941 14.38554 33685 ft 419 kts 266°
2026-05-09 10:48 52.49688 14.33806 33895 ft 418 kts 266°
2026-05-09 10:48 52.49434 14.29049 34064 ft 418 kts 266°
2026-05-09 10:48 52.49181 14.24305 34193 ft 419 kts 266°
2026-05-09 10:49 52.48927 14.19538 34193 ft 420 kts 266°
2026-05-09 10:49 52.48412 14.10023 34198 ft 417 kts 266°
2026-05-09 10:50 52.47894 14.00562 34200 ft 415 kts 265°
2026-05-09 10:50 52.47370 13.91145 34203 ft 414 kts 265°
2026-05-09 10:51 52.46840 13.81749 34206 ft 413 kts 265°
2026-05-09 10:51 52.46303 13.72375 34205 ft 413 kts 265°
2026-05-09 10:52 52.45758 13.62991 34212 ft 413 kts 265°
2026-05-09 10:52 52.45205 13.53598 34211 ft 414 kts 265°
2026-05-09 10:53 52.44644 13.44189 34213 ft 415 kts 265°
2026-05-09 10:53 52.44078 13.34822 34212 ft 416 kts 265°
2026-05-09 10:54 52.43495 13.25320 34205 ft 417 kts 265°
2026-05-09 10:54 52.42912 13.15921 34203 ft 417 kts 265°
2026-05-09 10:55 52.42317 13.06463 34202 ft 418 kts 264°
2026-05-09 10:55 52.41713 12.96990 34197 ft 418 kts 264°
2026-05-09 10:56 52.41105 12.87565 34193 ft 417 kts 264°
2026-05-09 10:56 52.40489 12.78115 34193 ft 417 kts 264°
2026-05-09 10:57 52.39867 12.68693 34200 ft 416 kts 264°
2026-05-09 10:57 52.39463 12.59264 34203 ft 415 kts 269°
2026-05-09 10:58 52.39381 12.49831 34197 ft 414 kts 269°
2026-05-09 10:58 52.39310 12.40417 34195 ft 413 kts 269°
2026-05-09 10:59 52.39210 12.31033 34198 ft 412 kts 269°
2026-05-09 10:59 52.39089 12.21659 34196 ft 412 kts 269°
2026-05-09 11:00 52.38958 12.12302 34201 ft 411 kts 269°
2026-05-09 11:00 52.38819 12.02946 34201 ft 411 kts 269°
2026-05-09 11:01 52.38673 11.93590 34201 ft 411 kts 268°
2026-05-09 11:01 52.38520 11.84307 34203 ft 411 kts 268°
2026-05-09 11:02 52.38360 11.74957 34203 ft 411 kts 268°
2026-05-09 11:02 52.38192 11.65605 34199 ft 411 kts 268°
2026-05-09 11:03 52.38016 11.56258 34203 ft 411 kts 268°
2026-05-09 11:03 52.37834 11.46904 34195 ft 412 kts 268°
2026-05-09 11:04 52.37644 11.37539 34196 ft 412 kts 268°
2026-05-09 11:04 52.37445 11.28163 34196 ft 412 kts 268°
2026-05-09 11:05 52.37240 11.18783 34194 ft 413 kts 268°
2026-05-09 11:05 52.37027 11.09395 34197 ft 413 kts 268°
2026-05-09 11:06 52.36808 11.00064 34194 ft 413 kts 268°
2026-05-09 11:06 52.36581 10.90668 34204 ft 413 kts 268°
2026-05-09 11:07 52.36362 10.81268 34202 ft 414 kts 270°
2026-05-09 11:07 52.37062 10.71947 34218 ft 414 kts 280°
2026-05-09 11:08 52.38151 10.62700 34206 ft 414 kts 280°
2026-05-09 11:08 52.39231 10.53442 34211 ft 414 kts 280°
2026-05-09 11:09 52.40282 10.44167 34207 ft 414 kts 280°
2026-05-09 11:09 52.41316 10.34877 34204 ft 415 kts 279°
2026-05-09 11:10 52.42339 10.25571 34199 ft 415 kts 279°
2026-05-09 11:10 52.43354 10.16270 34186 ft 415 kts 279°
2026-05-09 11:11 52.44362 10.06964 34182 ft 415 kts 279°
2026-05-09 11:11 52.45364 9.97649 34178 ft 415 kts 279°
2026-05-09 11:12 52.46351 9.88389 34188 ft 415 kts 279°
2026-05-09 11:12 52.47337 9.79075 34183 ft 415 kts 279°
2026-05-09 11:13 52.48317 9.69744 34177 ft 415 kts 279°
2026-05-09 11:13 52.49289 9.60419 34186 ft 415 kts 279°
2026-05-09 11:14 52.50253 9.51087 34191 ft 415 kts 279°
2026-05-09 11:14 52.51212 9.41734 34177 ft 415 kts 279°
2026-05-09 11:15 52.52163 9.32381 34178 ft 415 kts 279°
2026-05-09 11:15 52.53108 9.23017 34175 ft 415 kts 279°
2026-05-09 11:16 52.54044 9.13651 34182 ft 416 kts 279°
2026-05-09 11:16 52.54974 9.04279 34167 ft 416 kts 278°
2026-05-09 11:17 52.55891 8.94958 34145 ft 416 kts 278°
2026-05-09 11:17 52.56806 8.85579 34157 ft 416 kts 278°
2026-05-09 11:18 52.57714 8.76189 34154 ft 416 kts 278°
2026-05-09 11:18 52.58614 8.66802 34156 ft 416 kts 278°
2026-05-09 11:19 52.59506 8.57406 34155 ft 416 kts 278°
2026-05-09 11:19 52.60391 8.48014 34163 ft 416 kts 278°
2026-05-09 11:20 52.61269 8.38612 34154 ft 416 kts 278°
2026-05-09 11:20 52.62139 8.29212 34161 ft 416 kts 278°
2026-05-09 11:21 52.63003 8.19798 34157 ft 416 kts 278°
2026-05-09 11:21 52.63858 8.10384 34156 ft 416 kts 278°
2026-05-09 11:22 52.64702 8.01015 34146 ft 416 kts 278°
2026-05-09 11:22 52.65544 7.91580 34158 ft 417 kts 277°
2026-05-09 11:23 52.66380 7.82128 34150 ft 417 kts 277°
2026-05-09 11:23 52.67074 7.74216 34142 ft 416 kts 277°
2026-05-09 11:24 52.67888 7.64840 34140 ft 416 kts 277°
2026-05-09 11:24 52.68701 7.55393 34150 ft 416 kts 277°
2026-05-09 11:25 52.69507 7.45938 34140 ft 416 kts 277°
2026-05-09 11:25 52.70305 7.36485 34149 ft 416 kts 277°
2026-05-09 11:26 52.71095 7.27034 34149 ft 416 kts 277°
2026-05-09 11:26 52.71878 7.17576 34157 ft 416 kts 277°
2026-05-09 11:27 52.72653 7.08117 34149 ft 416 kts 277°
2026-05-09 11:27 52.73421 6.98653 34155 ft 416 kts 276°
2026-05-09 11:28 52.74181 6.89185 34152 ft 416 kts 276°
2026-05-09 11:28 52.74935 6.79704 34160 ft 417 kts 276°
2026-05-09 11:29 52.75681 6.70217 34158 ft 417 kts 276°
2026-05-09 11:29 52.76414 6.60793 34159 ft 417 kts 276°
2026-05-09 11:30 52.77145 6.51297 34149 ft 417 kts 276°
2026-05-09 11:30 52.77869 6.41795 34160 ft 417 kts 276°
2026-05-09 11:31 52.78586 6.32286 34150 ft 417 kts 276°
2026-05-09 11:31 52.79299 6.22712 34163 ft 417 kts 276°
2026-05-09 11:32 52.79996 6.13254 34149 ft 417 kts 275°
2026-05-09 11:32 52.80690 6.03733 34164 ft 417 kts 275°
2026-05-09 11:33 52.81377 5.94207 34143 ft 418 kts 275°
2026-05-09 11:33 52.82393 5.79900 34144 ft 417 kts 275°
2026-05-09 11:34 52.83060 5.70367 34158 ft 417 kts 275°
2026-05-09 11:34 52.83709 5.60987 34142 ft 417 kts 275°
2026-05-09 11:35 52.84361 5.51454 34162 ft 417 kts 275°
2026-05-09 11:35 52.85004 5.41932 34149 ft 417 kts 275°
2026-05-09 11:36 52.85640 5.32399 34151 ft 417 kts 275°
2026-05-09 11:36 52.86268 5.22868 34149 ft 417 kts 274°
2026-05-09 11:37 52.86889 5.13337 34160 ft 416 kts 274°
2026-05-09 11:37 52.87501 5.03811 33983 ft 416 kts 274°
2026-05-09 11:38 52.88105 4.94298 34116 ft 415 kts 274°
2026-05-09 11:38 52.88700 4.84785 34154 ft 417 kts 274°
2026-05-09 11:39 52.89291 4.75213 34166 ft 419 kts 273°
2026-05-09 11:40 52.90171 4.60747 34163 ft 423 kts 273°
2026-05-09 11:40 52.90751 4.51032 34158 ft 424 kts 273°
2026-05-09 11:41 52.91325 4.41303 34156 ft 425 kts 273°
2026-05-09 11:41 52.91891 4.31561 34154 ft 424 kts 272°
2026-05-09 11:42 52.92448 4.21839 34154 ft 423 kts 272°
2026-05-09 11:42 52.92995 4.12137 34153 ft 422 kts 272°
2026-05-09 11:43 52.93533 4.02472 34154 ft 421 kts 272°
2026-05-09 11:43 52.94061 3.92829 34159 ft 419 kts 272°
2026-05-09 11:44 52.94577 3.83264 34162 ft 419 kts 272°
2026-05-09 11:44 52.95087 3.73658 34168 ft 418 kts 271°
2026-05-09 11:45 52.95590 3.64055 34166 ft 418 kts 271°
2026-05-09 11:45 52.96084 3.54449 34180 ft 418 kts 271°
2026-05-09 11:46 52.96572 3.44835 34165 ft 419 kts 271°
2026-05-09 11:46 52.97053 3.35198 34169 ft 419 kts 271°
2026-05-09 11:47 52.97527 3.25548 34157 ft 420 kts 271°
2026-05-09 11:47 52.98170 3.15887 34161 ft 423 kts 276°
2026-05-09 11:48 52.99242 3.06260 34159 ft 425 kts 277°
2026-05-09 11:48 53.00351 2.96628 34158 ft 425 kts 276°
2026-05-09 11:49 53.01430 2.86976 34160 ft 425 kts 276°
2026-05-09 11:49 53.02486 2.77308 34153 ft 425 kts 276°
2026-05-09 11:50 53.03521 2.67700 34158 ft 426 kts 276°
2026-05-09 11:50 53.04555 2.58014 34159 ft 425 kts 276°
2026-05-09 11:51 53.05582 2.48326 34163 ft 425 kts 275°
2026-05-09 11:51 53.06598 2.38652 34158 ft 425 kts 275°
2026-05-09 11:52 53.07608 2.28969 34163 ft 425 kts 275°
2026-05-09 11:52 53.08608 2.19294 34159 ft 424 kts 275°
2026-05-09 11:53 53.09600 2.09622 34166 ft 424 kts 275°
2026-05-09 11:53 53.10583 1.99946 34167 ft 424 kts 275°
2026-05-09 11:54 53.11552 1.90334 34168 ft 424 kts 274°
2026-05-09 11:54 53.12520 1.80656 34166 ft 424 kts 274°
2026-05-09 11:55 53.13481 1.70961 34167 ft 424 kts 274°
2026-05-09 11:56 53.16317 1.41839 34167 ft 425 kts 274°
2026-05-09 11:57 53.17247 1.32112 34167 ft 425 kts 273°
2026-05-09 11:57 53.18171 1.22377 34167 ft 425 kts 273°
2026-05-09 11:58 53.19080 1.12699 34166 ft 426 kts 273°
2026-05-09 11:58 53.19988 1.02951 34167 ft 426 kts 273°
2026-05-09 11:59 53.20888 0.93193 34168 ft 426 kts 272°
2026-05-09 11:59 53.21781 0.83426 34168 ft 426 kts 272°
2026-05-09 12:00 53.22666 0.73659 34170 ft 426 kts 272°
2026-05-09 12:00 53.23543 0.63883 34163 ft 426 kts 272°
2026-05-09 12:01 53.24411 0.54105 34166 ft 426 kts 272°
2026-05-09 12:01 53.25272 0.44321 34166 ft 426 kts 272°
2026-05-09 12:02 53.26125 0.34537 34169 ft 426 kts 271°
2026-05-09 12:02 53.26970 0.24741 34163 ft 426 kts 271°
2026-05-09 12:03 53.27809 0.14928 34150 ft 427 kts 271°
2026-05-09 12:03 53.28641 0.05110 34164 ft 427 kts 271°
2026-05-09 12:04 53.29567 -0.04703 34161 ft 429 kts 273°
2026-05-09 12:04 53.30618 -0.14523 34160 ft 430 kts 273°
2026-05-09 12:05 53.31639 -0.24300 34163 ft 430 kts 272°
2026-05-09 12:05 53.32643 -0.34169 34161 ft 430 kts 272°
2026-05-09 12:06 53.33638 -0.44039 34161 ft 430 kts 272°
2026-05-09 12:06 53.34633 -0.53913 34157 ft 431 kts 272°
2026-05-09 12:07 53.35623 -0.63801 34159 ft 431 kts 272°
2026-05-09 12:07 53.36592 -0.73684 34168 ft 430 kts 272°
2026-05-09 12:08 53.37546 -0.83581 34161 ft 430 kts 271°
2026-05-09 12:08 53.38495 -0.93474 34165 ft 431 kts 272°
2026-05-09 12:09 53.39475 -1.03377 34159 ft 431 kts 272°
2026-05-09 12:09 53.40434 -1.13291 34164 ft 431 kts 271°
2026-05-09 12:10 53.42278 -1.33127 34173 ft 431 kts 271°
2026-05-09 12:11 53.43210 -1.43044 34182 ft 431 kts 271°
2026-05-09 12:11 53.44134 -1.52966 34179 ft 431 kts 271°
2026-05-09 12:12 53.45036 -1.62830 34174 ft 431 kts 271°
2026-05-09 12:12 53.45935 -1.72764 34176 ft 430 kts 271°
2026-05-09 12:13 53.46826 -1.82711 34193 ft 433 kts 270°
2026-05-09 12:13 53.47559 -1.91096 34166 ft 434 kts 270°
2026-05-09 12:14 53.48419 -2.01038 34165 ft 433 kts 270°
2026-05-09 12:14 53.49273 -2.10982 34164 ft 431 kts 270°
2026-05-09 12:15 53.50119 -2.20933 34163 ft 429 kts 270°
2026-05-09 12:15 53.50958 -2.30845 34157 ft 428 kts 270°
2026-05-09 12:16 53.51788 -2.40723 34170 ft 427 kts 270°
2026-05-09 12:16 53.52608 -2.50587 34162 ft 426 kts 270°
2026-05-09 12:17 53.53418 -2.60441 34168 ft 425 kts 270°
2026-05-09 12:17 53.54219 -2.70280 34159 ft 424 kts 270°
2026-05-09 12:18 53.55010 -2.80107 34180 ft 424 kts 270°
2026-05-09 12:18 53.55792 -2.89929 34167 ft 423 kts 270°
2026-05-09 12:19 53.56565 -2.99747 34190 ft 423 kts 270°
2026-05-09 12:19 53.57326 -3.09499 34192 ft 423 kts 270°
2026-05-09 12:20 53.58082 -3.19311 34184 ft 423 kts 270°
2026-05-09 12:20 53.58830 -3.29110 34180 ft 422 kts 270°
2026-05-09 12:21 53.59570 -3.38911 34189 ft 422 kts 270°
2026-05-09 12:21 53.60301 -3.48710 34179 ft 421 kts 271°
2026-05-09 12:22 53.61024 -3.58497 34202 ft 421 kts 271°
2026-05-09 12:22 53.61723 -3.68200 34188 ft 419 kts 269°
2026-05-09 12:23 53.62145 -3.77940 34193 ft 416 kts 268°
2026-05-09 12:23 53.62514 -3.87668 34192 ft 416 kts 268°
2026-05-09 12:24 53.62916 -3.97383 34193 ft 415 kts 268°
2026-05-09 12:24 53.63300 -4.07073 34198 ft 414 kts 268°
2026-05-09 12:25 53.63669 -4.16749 34200 ft 413 kts 268°
2026-05-09 12:25 53.64029 -4.26410 34203 ft 413 kts 268°
2026-05-09 12:26 53.64380 -4.36062 34207 ft 412 kts 268°
2026-05-09 12:26 53.64719 -4.45701 34202 ft 412 kts 269°
2026-05-09 12:27 53.65051 -4.55333 34205 ft 412 kts 269°
2026-05-09 12:27 53.65375 -4.64900 34207 ft 411 kts 269°
2026-05-09 12:28 53.65695 -4.74531 34210 ft 411 kts 269°
2026-05-09 12:28 53.66006 -4.84157 34214 ft 411 kts 269°
2026-05-09 12:29 53.66323 -4.93776 34222 ft 411 kts 269°
2026-05-09 12:29 53.66640 -5.03392 34227 ft 411 kts 269°
2026-05-09 12:30 53.66948 -5.13009 34225 ft 411 kts 269°
2026-05-09 12:30 53.67372 -5.27361 34233 ft 410 kts 269°
2026-05-09 12:31 53.67777 -5.41764 34239 ft 410 kts 269°
2026-05-09 12:32 53.67521 -5.51281 34246 ft 404 kts 256°
2026-05-09 12:32 53.65823 -5.60245 34242 ft 401 kts 247°
2026-05-09 12:33 53.63825 -5.69025 34242 ft 401 kts 247°
2026-05-09 12:33 53.61839 -5.77811 34245 ft 402 kts 248°
2026-05-09 12:34 53.59864 -5.86616 34242 ft 402 kts 248°
2026-05-09 12:34 53.57888 -5.95429 34239 ft 403 kts 248°
2026-05-09 12:35 53.55907 -6.04230 34242 ft 403 kts 248°
2026-05-09 12:35 53.53914 -6.13048 34249 ft 404 kts 248°
2026-05-09 12:36 53.51908 -6.21890 34238 ft 405 kts 248°
2026-05-09 12:36 53.49886 -6.30725 34240 ft 406 kts 246°
2026-05-09 12:37 53.47517 -6.39324 34243 ft 405 kts 243°
2026-05-09 12:37 53.45071 -6.47687 34222 ft 395 kts 243°
2026-05-09 12:38 53.42679 -6.55881 34236 ft 390 kts 243°
2026-05-09 12:38 53.40298 -6.64076 33864 ft 389 kts 243°
2026-05-09 12:38 53.39126 -6.68115 33464 ft 384 kts 243°
2026-05-09 12:39 53.37966 -6.72108 33119 ft 380 kts 243°
2026-05-09 12:39 53.36815 -6.76069 32725 ft 377 kts 243°
2026-05-09 12:39 53.35670 -6.79998 32349 ft 374 kts 243°
2026-05-09 12:39 53.34536 -6.83886 31971 ft 371 kts 243°
2026-05-09 12:40 53.33409 -6.87742 31604 ft 368 kts 243°
2026-05-09 12:40 53.32288 -6.91571 31243 ft 365 kts 243°
2026-05-09 12:40 53.31175 -6.95369 30881 ft 363 kts 243°
2026-05-09 12:40 53.30066 -6.99145 30519 ft 360 kts 243°
2026-05-09 12:41 53.28965 -7.02888 30135 ft 358 kts 243°
2026-05-09 12:41 53.27883 -7.06559 29738 ft 355 kts 243°
2026-05-09 12:41 53.26799 -7.10234 29369 ft 351 kts 243°
2026-05-09 12:41 53.25727 -7.13862 29009 ft 347 kts 243°
2026-05-09 12:42 53.24662 -7.17461 28647 ft 343 kts 243°
2026-05-09 12:42 53.23607 -7.21020 28283 ft 340 kts 243°
2026-05-09 12:42 53.22559 -7.24550 27917 ft 337 kts 243°
2026-05-09 12:42 53.21523 -7.28036 27562 ft 334 kts 243°
2026-05-09 12:43 53.20494 -7.31491 27214 ft 328 kts 244°
2026-05-09 12:43 53.19484 -7.34877 26869 ft 325 kts 244°
2026-05-09 12:43 53.18482 -7.38233 26522 ft 322 kts 244°
2026-05-09 12:43 53.17486 -7.41566 26171 ft 320 kts 244°
2026-05-09 12:44 53.16495 -7.44876 25837 ft 318 kts 244°
2026-05-09 12:44 53.15511 -7.48159 25495 ft 316 kts 244°
2026-05-09 12:44 53.14531 -7.51424 25171 ft 314 kts 244°
2026-05-09 12:44 53.13568 -7.54627 24847 ft 312 kts 244°
2026-05-09 12:45 53.12598 -7.57848 24516 ft 311 kts 244°
2026-05-09 12:45 53.11632 -7.61054 24190 ft 309 kts 244°
2026-05-09 12:45 53.10671 -7.64238 23871 ft 308 kts 244°
2026-05-09 12:45 53.09712 -7.67411 23487 ft 306 kts 244°
2026-05-09 12:46 53.08756 -7.70571 23131 ft 304 kts 244°
2026-05-09 12:46 53.07807 -7.73701 22810 ft 302 kts 244°
2026-05-09 12:46 53.06867 -7.76801 22499 ft 299 kts 244°
2026-05-09 12:46 53.05935 -7.79867 22165 ft 297 kts 244°
2026-05-09 12:47 53.05006 -7.82921 21838 ft 295 kts 244°
2026-05-09 12:47 53.04084 -7.85951 21540 ft 294 kts 244°
2026-05-09 12:47 53.03156 -7.88993 21207 ft 295 kts 244°
2026-05-09 12:47 53.02222 -7.92055 20899 ft 301 kts 244°
2026-05-09 12:48 53.01263 -7.95193 20577 ft 309 kts 244°
2026-05-09 12:48 53.00288 -7.98379 20234 ft 309 kts 244°
2026-05-09 12:48 52.99323 -8.01527 19883 ft 302 kts 244°
2026-05-09 12:48 52.98380 -8.04598 19556 ft 295 kts 244°
2026-05-09 12:49 52.97452 -8.07620 19259 ft 293 kts 244°
2026-05-09 12:49 52.96531 -8.10618 18942 ft 289 kts 244°
2026-05-09 12:49 52.95618 -8.13580 18648 ft 287 kts 244°
2026-05-09 12:49 52.94708 -8.16527 18308 ft 287 kts 244°
2026-05-09 12:50 52.93824 -8.19478 17980 ft 285 kts 250°
2026-05-09 12:50 52.93343 -8.22636 17650 ft 281 kts 261°
2026-05-09 12:50 52.93042 -8.25789 17336 ft 276 kts 262°
2026-05-09 12:50 52.92757 -8.28954 17035 ft 279 kts 262°
2026-05-09 12:51 52.92468 -8.32143 16731 ft 281 kts 262°
2026-05-09 12:51 52.92172 -8.35348 16423 ft 283 kts 262°
2026-05-09 12:51 52.91866 -8.38586 16117 ft 286 kts 261°
2026-05-09 12:51 52.91554 -8.41851 15798 ft 288 kts 261°
2026-05-09 12:52 52.91238 -8.45122 15483 ft 286 kts 262°
2026-05-09 12:52 52.90923 -8.48356 15156 ft 282 kts 262°
2026-05-09 12:52 52.90613 -8.51519 14860 ft 276 kts 262°
2026-05-09 12:52 52.90303 -8.54658 14555 ft 275 kts 262°
2026-05-09 12:53 52.89994 -8.57783 14266 ft 275 kts 262°
2026-05-09 12:53 52.89684 -8.60912 13956 ft 276 kts 262°
2026-05-09 12:53 52.89377 -8.64019 13613 ft 278 kts 262°
2026-05-09 12:53 52.89061 -8.67189 13288 ft 280 kts 262°
2026-05-09 12:54 52.88741 -8.70385 12963 ft 282 kts 261°
2026-05-09 12:54 52.88421 -8.73584 12644 ft 281 kts 261°
2026-05-09 12:54 52.88101 -8.76775 12315 ft 281 kts 261°
2026-05-09 12:54 52.87780 -8.79954 12006 ft 280 kts 262°
2026-05-09 12:55 52.87458 -8.83135 11701 ft 280 kts 261°
2026-05-09 12:55 52.87134 -8.86311 11389 ft 280 kts 260°
2026-05-09 12:55 52.86448 -8.89311 11030 ft 283 kts 237°
2026-05-09 12:55 52.85266 -8.91930 10685 ft 285 kts 233°
2026-05-09 12:56 52.84039 -8.94510 10434 ft 283 kts 233°
2026-05-09 12:56 52.82835 -8.97031 10302 ft 276 kts 233°
2026-05-09 12:56 52.81655 -8.99508 10042 ft 274 kts 233°
2026-05-09 12:56 52.80479 -9.01986 9742 ft 272 kts 233°
2026-05-09 12:57 52.79317 -9.04441 9445 ft 271 kts 233°
2026-05-09 12:57 52.78160 -9.06887 9159 ft 270 kts 233°
2026-05-09 12:57 52.77009 -9.09320 8883 ft 268 kts 233°
2026-05-09 12:57 52.75862 -9.11744 8598 ft 268 kts 233°
2026-05-09 12:58 52.74719 -9.14164 8313 ft 267 kts 233°
2026-05-09 12:58 52.73593 -9.16543 8039 ft 266 kts 233°
2026-05-09 12:58 52.72460 -9.18937 7770 ft 265 kts 233°
2026-05-09 12:58 52.71325 -9.21333 7498 ft 265 kts 232°
2026-05-09 12:59 52.70189 -9.23728 7213 ft 263 kts 233°
2026-05-09 12:59 52.69071 -9.26080 6949 ft 260 kts 232°
2026-05-09 12:59 52.67957 -9.28419 6697 ft 259 kts 232°
2026-05-09 12:59 52.66788 -9.30633 6433 ft 254 kts 218°
2026-05-09 13:00 52.65221 -9.31783 6246 ft 243 kts 187°
2026-05-09 13:00 52.63602 -9.31588 5922 ft 231 kts 159°
2026-05-09 13:00 52.62198 -9.30413 5507 ft 223 kts 140°
2026-05-09 13:00 52.60985 -9.28881 5165 ft 217 kts 137°
2026-05-09 13:01 52.59821 -9.27356 4856 ft 209 kts 137°
2026-05-09 13:01 52.58703 -9.25903 4567 ft 201 kts 136°
2026-05-09 13:01 52.57629 -9.24499 4311 ft 193 kts 130°
2026-05-09 13:01 52.57012 -9.22697 4041 ft 175 kts 92°
2026-05-09 13:02 52.57048 -9.20800 3905 ft 163 kts 70°
2026-05-09 13:02 52.57581 -9.19254 3683 ft 155 kts 49°
2026-05-09 13:02 52.58241 -9.17861 3475 ft 152 kts 50°
2026-05-09 13:02 52.58874 -9.16505 3269 ft 149 kts 52°
2026-05-09 13:03 52.59530 -9.15103 3093 ft 161 kts 49°
2026-05-09 13:03 52.60235 -9.13651 2872 ft 161 kts 51°
2026-05-09 13:03 52.60929 -9.12161 2683 ft 165 kts 49°
2026-05-09 13:03 52.61624 -9.10685 2440 ft 161 kts 50°
2026-05-09 13:04 52.62286 -9.09301 2200 ft 145 kts 50°
2026-05-09 13:04 52.62871 -9.08048 2036 ft 134 kts 49°
2026-05-09 13:04 52.63460 -9.06793 1902 ft 146 kts 49°
2026-05-09 13:04 52.64094 -9.05444 1689 ft 151 kts 49°
2026-05-09 13:05 52.64723 -9.04106 1476 ft 143 kts 50°
2026-05-09 13:05 52.65310 -9.02859 1295 ft 135 kts 50°
2026-05-09 13:05 52.65874 -9.01662 1138 ft 132 kts 51°
2026-05-09 13:05 52.66467 -9.00405 978 ft 146 kts 50°
2026-05-09 13:06 52.67092 -8.99079 773 ft 143 kts 49°
2026-05-09 13:06 52.67690 -8.97809 606 ft 140 kts 50°
2026-05-09 13:06 52.68272 -8.96585 460 ft 129 kts 50°
2026-05-09 13:06 52.68812 -8.95454 288 ft 128 kts 52°
2026-05-09 13:07 52.69388 -8.94199 94 ft 137 kts 52°
2026-05-09 13:07 52.69923 -8.93087 42 ft 106 kts 52°
2026-05-09 13:07 52.70326 -8.92231 36 ft 79 kts 52°
2026-05-09 13:07 52.70554 -8.91736 30 ft 48 kts 52°
2026-05-09 13:08 52.70713 -8.91392 27 ft 19 kts 53°
2026-05-09 13:08 52.70765 -8.91239 27 ft 13 kts 95°
2026-05-09 13:08 52.70697 -8.91155 27 ft 13 kts 161°
2026-05-09 13:08 52.70611 -8.91130 28 ft 13 kts 172°
2026-05-09 13:09 52.70526 -8.91106 28 ft 12 kts 170°
2026-05-09 13:09 52.70444 -8.91082 29 ft 12 kts 169°
2026-05-09 13:09 52.70364 -8.91056 29 ft 12 kts 168°
2026-05-09 13:09 52.70286 -8.91032 29 ft 11 kts 170°
2026-05-09 13:10 52.70210 -8.91011 30 ft 11 kts 176°
2026-05-09 13:10 52.70137 -8.91039 30 ft 11 kts 198°
2026-05-09 13:10 52.70069 -8.91082 31 ft 10 kts 204°
2026-05-09 13:10 52.70002 -8.91117 30 ft 10 kts 197°
2026-05-09 13:11 52.69928 -8.91157 32 ft 13 kts 198°
2026-05-09 13:11 52.69861 -8.91194 32 ft 17 kts 199°
2026-05-09 13:11 52.69749 -8.91257 34 ft 17 kts 199°
2026-05-09 13:11 52.69687 -8.91370 35 ft 14 kts 282°
2026-05-09 13:12 52.69739 -8.91507 36 ft 14 kts 305°
2026-05-09 13:12 52.69793 -8.91634 36 ft 13 kts 304°
2026-05-09 13:12 52.69831 -8.91759 36 ft 12 kts 258°
2026-05-09 13:12 52.69769 -8.91851 37 ft 12 kts 216°
2026-05-09 13:13 52.69680 -8.91956 38 ft 12 kts 215°
2026-05-09 13:13 52.69635 -8.92007 39 ft 12 kts 214°
2026-05-09 13:13 52.69564 -8.92088 40 ft 12 kts 214°
2026-05-09 13:13 52.69502 -8.92169 41 ft 7 kts 237°
2026-05-09 13:14 52.69498 -8.92240 41 ft 6 kts 266°
2026-05-09 13:14 52.69466 -8.92277 41 ft 6 kts 182°
2026-05-09 13:16 52.69380 -8.92283 42 ft 0 kts 184°